Back to catalog

CZ-2C R/B

AlivePO
NORAD 43610·ROCKET BODY·🇨🇳 China

Launched Sep 7, 2018 from Taiyuan Satellite Launch Center

Loading…

Next Passes (next 24 hours)

TLE

FreshSource: Space-Track

Epoch: Sep 14, 2026, 08:09 UTC

1 43610U 18068B   26257.33975779  .00000161  00000-0  45775-4 0  9999
2 43610  98.7093 106.6909 0087609  77.1926 283.9042 14.56657516425875

Track CZ-2C R/B in real time with AllMySat

Download on the App Store